Regional Weather Roundup
Issued by NWS Spokane, WA

Home | Current Version | Previous Version | Text Only | Print | Product List | Glossary On
Versions: 1 2 3 4 5 6 7 8 9 10 11 12 13 14 15 16 17 18 19 20 21 22 23 24 25 26 27 28 29 30 31 32 33 34 35 36 37 38 39 40 41 42 43 44 45 46 47 48 49 50
000
NZUS01 KOTX 031610
RWROTX
EASTERN WASHINGTON/NORTHERN IDAHO ROUNDUP
NATIONAL WEATHER SERVICE, SPOKANE WA
900 AM PDT FRI JUL 03 2015

Note: "fair" indicated few or no clouds below 12,000 feet with no
significant weather and/or obstructions to visibility.

...NORTHEAST WASHINGTON AND NORTHERN IDAHO PANHANDLE...

CITY           SKY/WX    TMP DP  RH WIND       PRES   REMARKS
SPOKANE INTL   MOSUNNY   80  50  34 SE6       29.94S
SPOKANE DOWNTO SUNNY     80  54  40 E5        29.93S
COEUR D ALENE  MOSUNNY   79  54  41 CALM      29.93F
DEER PARK      SUNNY     79  52  38 NE3       29.94F
SANDPOINT      MOSUNNY   77  52  41 NE5       29.95S
BONNERS FERRY  FAIR      72  54  53 CALM      29.97S

...SOUTHEAST WASHINGTON AND SOUTHERN IDAHO PANHANDLE...

CITY           SKY/WX    TMP DP  RH WIND       PRES   REMARKS
WALLA WALLA    SUNNY     88  46  23 W10       29.90R
PULLMAN/MOSCOW SUNNY     81  48  31 VRB6      29.98S
LEWISTON       SUNNY     81  51  35 NE5       29.91S
LOWELL           N/A     73  49  42 CALM      29.96F

...COLUMBIA BASIN...

CITY           SKY/WX    TMP DP  RH WIND       PRES   REMARKS
EPHRATA        SUNNY     90  49  24 VRB3      29.87S
MOSES LAKE     SUNNY     85  48  27 CALM      29.88R
TRI CITIES     SUNNY     85  51  31 NW3       29.85S
HERMISTON      SUNNY     85  50  29 W7        29.87S
PENDLETON      SUNNY     84  45  25 VRB3      29.91S

...EAST SLOPES CASCADES...

CITY           SKY/WX    TMP DP  RH WIND       PRES   REMARKS
THE DALLES     SUNNY     81  56  42 NW9       29.87S
YAKIMA         SUNNY     87  46  24 NW3       29.89F
ELLENSBURG     SUNNY     85  48  27 NW21G29   29.91F
WENATCHEE      SUNNY     84  51  31 W3        29.89S
OMAK           SUNNY     85  49  28 N14       29.88F

...SOUTHERN BRITISH COLUMBIA...

CITY           SKY/WX    TMP DP  RH WIND       PRES   REMARKS
CASTLEGAR      PTSUNNY   72  54  53 N3        29.95S
CRANBROOK      PTSUNNY   75  50  41 CALM      29.99F

...WESTERN MONTANA...

CITY           SKY/WX    TMP DP  RH WIND       PRES   REMARKS
MISSOULA       SUNNY     73  46  38 VRB3      30.02F

...NEIGHBORING CITIES...

CITY           SKY/WX    TMP DP  RH WIND       PRES   REMARKS
SEATTLE        MOSUNNY   71  54  54 W3        29.98S
CALGARY        MOSUNNY   79  48  34 NW13      29.94F



USA.gov is the U.S. government's official web portal to all federal, state and local government web resources and services.